Location: Franzen
(48.6167°N, 15.3833°E)
Time: 12:47:10
(UTC+00:00)

SR - Visible Passes

Search period start: 02 August 2021 00:00
Search period end: 12 August 2021 00:00
Orbit: 577 x 877 km, 66.7° (Epoch: 02 August)

Date Brightness Start Highest point End Pass type
(mag) Time Alt. Az. Time Alt. Az. Time Alt. Az.
04 Aug ? 03:03:06 10° SSE 03:06:51 18° ESE 03:10:29 10° ENE visible
07 Aug ? 02:15:58 10° SE 02:19:28 17° ESE 02:22:53 10° ENE visible
08 Aug ? 03:05:36 10° S 03:11:10 50° ESE 03:16:24 10° NE visible
09 Aug ? 02:16:43 10° SSE 02:21:33 28° ESE 02:26:10 10° NE visible
10 Aug ? 01:28:50 10° SE 01:32:05 16° ESE 01:35:15 10° ENE visible
11 Aug ? 02:18:16 10° S 02:23:45 47° ESE 02:28:55 10° NE visible
